Location: Grantsboro
(35.1404°N, 76.8424°W)
Time: 10:22:11
(UTC+00:00)

Cosmos 2082 - Pass Details

Date: 18 January 2020
Orbit: 833 x 856 km, 71.0° (Epoch: 18 February)

Event Time Altitude Azimuth Distance (km) Brightness Sun altitude
Rises 00:10:46 0° 187° (S) 3,362 7.0 -22.3°
Reaches altitude 10° 00:13:14 10° 183° (S) 2,432 6.2 -22.8°
Enters shadow 00:18:31 54° 113° (ESE) 1,004 3.7 -23.9°
